New York Downtown Manhattan/w, NY

3:35 AM EDT on August 25, 2019 (GMT -0400)
New York Downtown Manhattan/w

Weather History for KJRB - June, 2019

Change the Weather History Date:

Friday, June 14, 2019

  Actual Average (KEWR) Record (KEWR)
Temperature  
Mean Temperature 68 °F -  
Max Temperature 75 °F 78 °F 99 °F (1956)
Min Temperature 60 °F 61 °F 49 °F (1978)
Cooling Degree Days 2    
Growing Degree Days 18 (Base 50)    
Moisture  
Dew Point 54 °F    
Average Humidity 69    
Maximum Humidity 94    
Minimum Humidity 38    
Precipitation  
Precipitation 0.05 in - - ()
Sea Level Pressure  
Sea Level Pressure 29.87 in    
Wind  
Wind Speed 7 mph ()    
Max Wind Speed 18 mph    
Max Gust Speed 55 mph    
Visibility 10.0 miles    
Events      
Averages and records for this station are not official NWS values.
T = Trace of Precipitation, MM = Missing Value Source: Averaged Metar Reports

Daily Weather History Graph

Daily Weather History Graph

Search for Another Location

Airport or City:

Astronomy

Jun. 14, 2019 Rise Set
Actual Time 5:24 AM EDT 8:28 PM EDT
Civil Twilight 4:51 AM EDT 9:01 PM EDT
Nautical Twilight 4:08 AM EDT 9:44 PM EDT
Astronomical Twilight 3:18 AM EDT 10:34 PM EDT
Moon 5:46 PM EDT (6/14) 3:41 AM EDT (6/14)
Length of Visible Light 16h 10m
Length of Day
15h 04m
Waxing Gibbous, 92% of the Moon is Illuminated
Jun 14
Waxing Gibbous
Jun 17
Full
Jun 25
Last Quarter
Jul 2
New
Jul 9
First Quarter

Hourly Weather History & Observations

Time (EDT) Temp. Dew Point Humidity Pressure Visibility Wind Dir Wind Speed Gust Speed Precip Events Conditions
12:47 AM 62.6 °F 60.8 °F 94% 29.80 in 10.0 mi Calm Calm - N/A   Overcast
12:56 AM 62.1 °F 60.1 °F 93% 29.80 in 10.0 mi SSW 4.6 mph - N/A   Overcast
1:09 AM 62.6 °F 60.8 °F 94% 29.79 in 10.0 mi Calm Calm - N/A   Overcast
1:29 AM 62.6 °F 60.8 °F 94% 29.80 in 10.0 mi WSW 5.8 mph - N/A   Overcast
1:56 AM 62.1 °F 60.1 °F 93% 29.81 in 10.0 mi WSW 5.8 mph - N/A   Overcast
2:30 AM 62.6 °F 60.8 °F 94% 29.80 in 10.0 mi SW 5.8 mph - N/A   Overcast
2:56 AM 62.1 °F 60.1 °F 93% 29.80 in 10.0 mi WSW 8.1 mph - N/A   Overcast
3:56 AM 62.1 °F 60.1 °F 93% 29.81 in 10.0 mi SW 8.1 mph - N/A   Overcast
4:51 AM 60.8 °F 59.0 °F 94% 29.82 in 10.0 mi WSW 10.4 mph - N/A   Scattered Clouds
4:56 AM 61.0 °F 59.0 °F 93% 29.82 in 10.0 mi WSW 11.5 mph - N/A   Partly Cloudy
5:56 AM 60.1 °F 55.9 °F 86% 29.84 in 10.0 mi WSW 18.4 mph 23.0 mph N/A   Clear
6:56 AM 60.1 °F 54.0 °F 80% 29.85 in 10.0 mi West 17.3 mph 25.3 mph N/A   Clear
7:56 AM 60.1 °F 53.1 °F 78% 29.86 in 10.0 mi West 16.1 mph - N/A   Clear
8:56 AM 62.1 °F 52.0 °F 70% 29.87 in 10.0 mi West 16.1 mph - N/A   Clear
9:56 AM 66.0 °F 53.1 °F 63% 29.88 in 10.0 mi West 17.3 mph 52.9 mph 0.02 in   Mostly Cloudy
10:56 AM 68.0 °F 52.0 °F 56% 29.88 in 10.0 mi West 15.0 mph 24.2 mph N/A   Mostly Cloudy
11:56 AM 68.0 °F 52.0 °F 56% 29.90 in 10.0 mi Variable 4.6 mph 55.2 mph 0.01 in   Overcast
12:56 PM 69.1 °F 53.1 °F 57% 29.91 in 10.0 mi West 16.1 mph 25.3 mph N/A   Overcast
1:56 PM 69.1 °F 51.1 °F 53% 29.91 in 10.0 mi West 10.4 mph 24.2 mph N/A   Overcast
2:56 PM 71.1 °F 48.9 °F 45% 29.93 in 9.0 mi NW 10.4 mph 26.5 mph 0.01 in   Mostly Cloudy
3:56 PM 73.0 °F 48.9 °F 42% 29.92 in 10.0 mi West 12.7 mph 43.7 mph 0.01 in   Scattered Clouds
4:56 PM 75.0 °F 48.9 °F 40% 29.92 in 10.0 mi West 12.7 mph 42.6 mph N/A   Partly Cloudy
5:56 PM 75.0 °F 48.9 °F 40% 29.94 in 10.0 mi West 17.3 mph 20.7 mph N/A   Scattered Clouds
6:56 PM 73.9 °F 46.9 °F 38% 29.96 in 10.0 mi Variable 3.5 mph 21.9 mph N/A   Mostly Cloudy
7:56 PM 73.0 °F 48.0 °F 41% 29.97 in 10.0 mi Variable 5.8 mph - N/A   Clear
8:56 PM 71.1 °F 48.9 °F 45% 30.00 in 10.0 mi Variable 4.6 mph - N/A   Clear
9:56 PM 69.1 °F 48.0 °F 47% 30.03 in 10.0 mi West 5.8 mph - N/A   Clear